Location: Unspecified
(34.2910°N, 0.0000°E)
Time: 11:02:11
(UTC+00:00)

Envisat - Visible Passes

Search period start: 24 May 2019 00:00
Search period end: 03 June 2019 00:00
Orbit: 764 x 766 km, 98.2° (Epoch: 24 May)

Date Brightness Start Highest point End Pass type
(mag) Time Alt. Az. Time Alt. Az. Time Alt. Az.
24 May 5.6 19:39:47 10° SW 19:43:19 19° W 19:46:51 10° NW visible
27 May 5.3 19:27:56 10° SSW 19:32:00 24° W 19:36:07 10° NW visible
29 May 5.8 19:55:28 10° WSW 19:57:44 13° W 20:00:01 10° WNW visible
01 Jun 5.7 19:43:10 10° SW 19:46:24 17° W 19:49:40 10° NW visible
